EW7038 Weather Reports


Display with metric or nautical units.
time (UTC)temp
F
wind
direction
speed
MPH
gust
MPH
rain 1hr
in
rain 24hr
in
rain mn
in
humidity
%
barometer
mb
20260902170817 65 13 2.0 5.0 0.00 0.01 0.00 54 1007.0
20260902165816 64 319 1.0 3.0 0.00 0.01 0.00 57 1007.2
20260902164816 64 45 1.0 3.0 0.00 0.01 0.00 57 1007.2
20260902163816 63 340 2.0 5.0 0.00 0.01 0.00 56 1007.3
20260902162815 64 36 2.0 5.0 0.00 0.01 0.00 56 1007.3
20260902161817 63 22 3.0 6.0 0.00 0.01 0.00 56 1007.3
20260902160817 63 36 3.0 4.0 0.00 0.01 0.00 56 1007.6
20260902155816 62 327 2.0 7.0 0.00 0.01 0.00 58 1007.7
20260902154816 62 261 4.0 11.0 0.00 0.01 0.00 58 1007.7
20260902153816 62 285 6.0 10.0 0.00 0.01 0.00 58 1007.8
20260902152815 61 267 3.0 11.0 0.00 0.01 0.00 59 1008.0
20260902151814 61 262 5.0 11.0 0.00 0.01 0.00 60 1008.0
20260902150818 60 232 4.0 11.0 0.00 0.01 0.00 61 1008.1
20260902145837 60 257 6.0 10.0 0.00 0.01 0.00 62 1008.2
20260902144837 60 304 4.0 11.0 0.00 0.01 0.00 62 1008.2
20260902143816 60 268 4.0 14.0 0.00 0.01 0.00 62 1008.4
20260902142815 60 278 5.0 18.0 0.00 0.01 0.00 60 1008.5
20260902141815 60 261 8.0 17.0 0.00 0.01 0.00 61 1008.6
20260902140837 60 268 7.0 20.0 0.00 0.01 0.00 61 1008.6
20260902135817 60 283 13.0 20.0 0.00 0.01 0.00 60 1008.5
20260902134817 60 283 9.0 24.0 0.00 0.01 0.00 60 1008.6
20260902133816 60 265 11.0 21.0 0.00 0.01 0.00 58 1008.6
20260902132815 61 279 10.0 21.0 0.00 0.01 0.00 57 1008.6
20260902131835 61 259 10.0 19.0 0.00 0.01 0.00 55 1008.7
20260902130815 62 273 7.0 21.0 0.00 0.01 0.00 55 1008.7
20260902125818 61 291 8.0 19.0 0.00 0.01 0.00 54 1008.8
20260902124817 61 274 8.0 19.0 0.00 0.01 0.00 54 1008.8
20260902123816 62 251 7.0 16.0 0.00 0.01 0.00 54 1008.8
20260902122816 62 251 6.0 11.0 0.00 0.01 0.00 55 1008.8
20260902121835 62 275 4.0 14.0 0.00 0.01 0.00 55 1008.9
20260902120815 62 278 6.0 17.0 0.00 0.01 0.00 55 1008.7
20260902115817 62 269 8.0 20.0 0.00 0.01 0.00 54 1008.8
20260902114817 62 285 9.0 19.0 0.00 0.01 0.00 54 1008.9
20260902113836 62 283 5.0 25.0 0.00 0.01 0.00 54 1009.0
20260902112836 62 260 8.0 23.0 0.00 0.01 0.00 54 1009.0
20260902111815 62 271 12.0 23.0 0.00 0.01 0.00 53 1008.9
20260902110836 62 269 12.0 20.0 0.00 0.01 0.00 53 1009.0
20260902105815 62 306 8.0 20.0 0.00 0.01 0.00 53 1009.0
20260902104817 62 289 9.0 15.0 0.00 0.01 0.00 53 1009.0
20260902103817 62 300 7.0 14.0 0.00 0.01 0.00 54 1009.2
20260902102817 62 302 6.0 17.0 0.00 0.01 0.00 56 1009.3
20260902101816 62 263 10.0 19.0 0.00 0.01 0.00 56 1009.4
20260902100816 62 276 9.0 17.0 0.00 0.01 0.00 57 1009.5
20260902095815 62 276 5.0 19.0 0.00 0.01 0.00 57 1009.6
20260902094818 62 284 4.0 12.0 0.00 0.01 0.00 58 1009.5
20260902093818 62 263 7.0 15.0 0.00 0.01 0.00 57 1009.5
20260902092817 62 253 3.0 15.0 0.00 0.01 0.00 58 1009.7
20260902091816 62 196 4.0 12.0 0.00 0.01 0.00 58 1009.7
20260902090816 62 224 3.0 15.0 0.00 0.01 0.00 58 1009.7
20260902085815 62 192 2.0 15.0 0.00 0.01 0.00 58 1009.6
20260902084815 62 224 4.0 13.0 0.00 0.01 0.00 58 1009.6
20260902083818 62 244 6.0 14.0 0.00 0.01 0.00 58 1009.7
20260902082817 62 255 7.0 13.0 0.00 0.01 0.00 58 1009.8
20260902081837 62 270 5.0 17.0 0.00 0.01 0.00 58 1009.6
20260902080816 62 244 5.0 14.0 0.00 0.01 0.00 58 1009.8
20260902075816 62 280 5.0 19.0 0.00 0.01 0.00 59 1009.8
20260902074835 62 279 6.0 14.0 0.00 0.01 0.00 59 1009.9
20260902073814 62 260 7.0 13.0 0.00 0.01 0.00 58 1009.8
20260902072817 62 236 5.0 20.0 0.00 0.01 0.00 58 1009.9
20260902071817 62 241 13.0 27.0 0.00 0.01 0.00 58 1010.1
20260902070816 62 260 9.0 23.0 0.00 0.01 0.00 58 1010.1
20260902065816 62 240 9.0 26.0 0.00 0.01 0.01 57 1010.3
20260902064815 63 266 12.0 22.0 0.00 0.01 0.01 56 1010.3
20260902063815 63 280 8.0 21.0 0.00 0.01 0.01 56 1010.5
20260902062817 64 253 8.0 22.0 0.00 0.01 0.01 55 1010.5
20260902061817 64 255 11.0 23.0 0.00 0.01 0.01 55 1010.5
20260902060817 64 259 15.0 23.0 0.00 0.01 0.01 55 1010.7
20260902055836 64 263 8.0 20.0 0.00 0.01 0.01 56 1010.5
20260902054816 64 243 6.0 17.0 0.00 0.01 0.01 56 1010.6
20260902053815 64 262 6.0 19.0 0.00 0.01 0.01 56 1010.6
20260902052815 64 258 5.0 17.0 0.00 0.01 0.01 55 1010.5
20260902051817 64 201 5.0 26.0 0.00 0.01 0.01 54 1010.6
20260902050817 64 255 9.0 30.0 0.00 0.01 0.01 55 1010.3
20260902045816 65 294 7.0 22.0 0.00 0.01 0.01 54 1010.2
20260902044836 65 258 6.0 26.0 0.00 0.01 0.01 54 1010.1
20260902043816 65 275 11.0 26.0 0.00 0.01 0.01 51 1010.0
20260902042815 65 257 5.0 25.0 0.00 0.01 0.01 51 1010.0
20260902041817 65 267 9.0 26.0 0.00 0.01 0.01 50 1009.8
20260902040817 65 290 6.0 34.0 0.00 0.01 0.01 50 1009.5
20260902035817 65 280 10.0 25.0 0.00 0.01 0.01 50 1009.6
20260902034816 66 306 7.0 30.0 0.00 0.01 0.01 51 1009.4
20260902033816 66 255 13.0 26.0 0.00 0.01 0.01 50 1009.2
20260902032815 66 231 9.0 23.0 0.00 0.01 0.01 50 1009.2
20260902031834 66 319 9.0 25.0 0.00 0.01 0.01 51 1009.1
20260902030817 66 277 10.0 31.0 0.00 0.01 0.01 51 1009.2
20260902025837 66 278 18.0 33.0 0.00 0.01 0.01 50 1009.4
20260902024816 66 274 8.0 30.0 0.00 0.01 0.01 51 1009.4
20260902023816 66 290 13.0 28.0 0.00 0.01 0.01 50 1009.1
20260902022816 66 311 8.0 25.0 0.00 0.01 0.01 50 1008.9
20260902021815 66 270 12.0 26.0 0.00 0.01 0.01 51 1009.0
20260902020818 66 312 7.0 25.0 0.00 0.01 0.01 50 1008.9
20260902015817 67 296 7.0 29.0 0.00 0.01 0.01 50 1008.8
20260902014817 67 259 10.0 32.0 0.00 0.01 0.01 50 1009.0
20260902013816 67 278 11.0 29.0 0.00 0.01 0.01 51 1009.1
20260902012856 67 272 11.0 28.0 0.00 0.01 0.01 49 1009.0
20260902011815 68 288 14.0 27.0 0.00 0.01 0.01 49 1008.7
20260902010815 68 275 7.0 29.0 0.00 0.01 0.01 48 1008.8
20260902005817 68 254 17.0 34.0 0.00 0.01 0.01 48 1008.7
20260902004817 68 263 14.0 33.0 0.00 0.01 0.01 48 1008.6
20260902003817 68 256 14.0 35.0 0.00 0.01 0.01 49 1008.4
20260902002816 67 278 12.0 35.0 0.00 0.01 0.01 49 1008.4
20260902001816 68 270 15.0 27.0 0.00 0.01 0.01 48 1008.5
20260902000815 68 286 10.0 32.0 0.00 0.01 0.01 49 1008.3
20260901235838 68 285 11.0 25.0 0.00 0.01 0.01 49 1008.4
20260901234817 67 280 14.0 26.0 0.00 0.01 0.01 49 1008.6
20260901233816 67 315 9.0 23.0 0.00 0.01 0.01 50 1008.6
20260901232816 67 261 11.0 28.0 0.00 0.01 0.01 49 1008.6
20260901231816 68 300 11.0 26.0 0.00 0.01 0.01 49 1008.6
20260901230835 67 287 7.0 34.0 0.00 0.01 0.01 49 1008.6
20260901225815 67 273 16.0 33.0 0.00 0.01 0.01 49 1008.5
20260901224818 68 276 15.0 41.0 0.00 0.01 0.01 50 1008.5
20260901223817 67 275 14.0 35.0 0.00 0.01 0.01 50 1008.3
20260901222816 67 278 16.0 36.0 0.00 0.01 0.01 50 1008.3
20260901221816 66 280 13.0 38.0 0.00 0.01 0.01 51 1008.1
20260901220815 66 271 16.0 43.0 0.00 0.01 0.01 51 1008.2
20260901215815 66 273 14.0 40.0 0.00 0.01 0.01 50 1008.0
20260901214815 68 274 13.0 33.0 0.00 0.00 0.00 50 1008.1
20260901213837 67 297 13.0 30.0 0.00 0.00 0.00 50 1008.2
20260901212837 67 256 9.0 37.0 0.00 0.00 0.00 49 1008.4
20260901211816 67 268 11.0 32.0 0.00 0.00 0.00 49 1008.5
20260901210816 67 313 7.0 35.0 0.00 0.00 0.00 49 1008.4
20260901205815 67 262 17.0 32.0 0.00 0.00 0.00 49 1008.4
20260901204815 67 292 12.0 30.0 0.00 0.00 0.00 50 1008.6
20260901203818 67 273 14.0 36.0 0.00 0.00 0.00 50 1008.7
20260901202817 66 271 15.0 38.0 0.00 0.00 0.00 50 1008.5
20260901201816 67 268 11.0 37.0 0.00 0.00 0.00 49 1008.7
20260901200816 66 280 17.0 37.0 0.00 0.00 0.00 50 1008.8
20260901195836 66 279 10.0 36.0 0.00 0.00 0.00 50 1008.6
20260901194855 66 308 11.0 36.0 0.00 0.00 0.00 50 1008.8
20260901193814 66 268 16.0 34.0 0.00 0.00 0.00 51 1009.0
20260901192817 66 267 11.0 38.0 0.00 0.00 0.00 50 1009.3
20260901191817 66 252 11.0 39.0 0.00 0.00 0.00 51 1009.4
20260901190816 66 277 12.0 30.0 0.00 0.00 0.00 50 1009.5
20260901185816 65 279 9.0 36.0 0.00 0.00 0.00 51 1009.4
20260901184815 65 265 11.0 37.0 0.00 0.00 0.00 51 1009.4
20260901183815 65 280 14.0 37.0 0.00 0.00 0.00 51 1009.4
20260901182818 65 264 15.0 32.0 0.00 0.00 0.00 51 1009.5
20260901181817 65 310 11.0 22.0 0.00 0.00 0.00 52 1009.6
20260901180817 64 322 6.0 32.0 0.00 0.00 0.00 53 1009.6
20260901175856 64 293 15.0 32.0 0.00 0.00 0.00 55 1009.6
20260901174816 63 313 11.0 35.0 0.00 0.00 0.00 56 1009.7
20260901173815 63 263 17.0 35.0 0.00 0.00 0.00 54 1009.6
20260901172815 63 312 12.0 24.0 0.00 0.00 0.00 55 1009.5
20260901171818 64 297 8.0 24.0 0.00 0.00 0.00 55 1009.6